Theta_e
323 323 323 323 322 321 321 320 319 321 323 321 317 317 319 317 315 318 318 317 320 323 325 328 328 329 329 330 333 335 337 340 341 342 344 346 347 348 349 349 349 348 348 347 347 345 344 344 343 343 341 338 338 338 339 339 340 342 343 343 344 344 344
322 324 324 323 323 323 321 319 321 322 323 323 320 318 319 317 315 317 318 315 317 318 321 328 331 330 330 330 331 333 337 340 340 340 341 341 344 346 346 347 347 348 348 347 347 346 344 343 342 342 340 338 338 338 338 339 338 338 339 340 342 343 344
321 323 323 322 322 323 322 321 323 322 319 320 322 319 318 317 316 317 317 317 317 316 319 327 331 331 332 331 332 333 334 338 339 339 339 338 340 343 344 345 346 347 347 347 347 347 346 344 343 342 341 341 340 340 340 340 339 337 337 338 340 342 342
321 322 322 320 320 321 320 321 323 323 320 320 322 320 318 317 316 317 317 316 317 319 322 325 328 332 334 333 334 335 334 337 339 338 339 338 338 339 340 342 344 345 345 346 346 346 346 345 343 343 342 342 342 341 341 341 341 341 341 341 341 341 341
319 320 321 321 322 321 319 319 319 320 319 320 321 320 318 317 317 317 317 316 317 322 328 326 326 331 335 336 337 336 335 336 337 336 336 337 336 336 337 339 341 342 343 344 345 345 345 345 345 344 344 344 343 342 342 342 342 342 342 342 341 341 341
318 320 322 323 324 323 322 320 319 319 319 318 318 318 318 317 317 318 317 316 317 323 330 329 328 330 332 337 338 336 337 336 336 335 334 335 336 335 336 337 337 340 341 342 343 345 345 345 346 345 345 345 344 344 343 342 343 343 343 342 342 342 342
319 320 322 322 322 324 323 322 322 322 321 319 316 317 318 317 317 318 317 316 319 327 335 334 331 332 332 336 338 337 337 336 335 335 334 335 336 335 336 337 337 339 339 340 342 343 344 344 345 345 345 345 345 344 343 343 343 343 342 343 342 342 342
321 320 321 321 320 321 321 322 323 322 321 321 319 322 322 318 316 317 317 317 319 328 340 337 333 335 333 332 335 336 338 337 334 333 333 333 334 336 337 337 337 338 338 338 340 341 342 342 344 345 345 345 345 344 344 343 343 342 342 343 342 342 343
320 320 320 319 319 319 320 322 323 322 323 322 321 325 325 320 317 318 317 317 319 329 340 335 331 333 332 331 332 332 334 336 334 333 332 332 333 335 336 337 338 338 337 338 338 339 340 341 342 344 343 344 344 344 344 343 343 343 343 343 343 342 343
320 321 321 319 319 321 321 321 322 322 322 322 321 322 321 319 321 321 317 317 321 329 336 333 330 331 334 336 334 331 330 330 330 330 329 330 332 333 334 335 337 338 338 338 338 338 339 340 341 342 342 343 343 343 344 343 343 343 343 343 343 342 343
322 323 323 321 320 321 321 321 323 323 322 322 322 320 319 322 324 321 320 323 322 324 331 336 336 334 335 339 337 334 332 328 326 328 328 329 331 330 332 334 335 337 338 338 338 338 338 339 339 340 341 341 342 342 342 342 343 343 343 343 343 343 343
320 319 320 319 319 320 321 321 322 323 323 323 320 319 322 328 322 317 325 332 325 323 329 336 341 341 338 338 339 336 333 327 327 329 327 328 328 328 330 331 332 335 335 337 338 338 338 339 339 339 340 340 340 341 341 342 342 343 342 343 343 343 343
317 317 318 318 319 321 321 321 322 322 323 323 321 321 325 328 321 319 331 339 329 325 327 328 337 345 341 337 336 333 330 327 326 326 326 326 326 327 328 328 328 330 332 334 336 337 338 339 338 339 339 340 340 340 341 341 341 342 342 342 342 343 343
316 316 317 319 320 320 320 320 321 321 322 323 323 323 323 325 324 323 333 339 332 326 327 326 330 336 332 329 329 328 327 327 326 325 326 326 327 327 328 329 328 328 329 330 332 335 338 339 339 339 339 339 340 340 341 341 341 341 341 342 343 343 343
316 316 317 318 318 319 319 320 321 321 322 322 322 323 323 323 325 323 328 334 332 329 330 331 330 330 327 328 330 329 326 326 326 326 326 327 327 327 328 329 329 328 328 329 331 333 336 337 338 339 339 340 340 340 341 341 341 341 341 342 343 343 343
316 316 317 317 318 319 318 319 321 321 321 322 322 323 323 323 324 324 324 326 328 329 331 331 331 329 328 331 334 331 327 325 325 326 326 326 327 326 327 330 329 328 328 329 331 332 332 335 337 338 339 340 340 340 341 340 341 341 341 342 342 342 343
316 316 316 317 318 318 318 319 320 321 322 322 321 323 324 324 324 324 322 323 327 331 331 330 330 330 330 333 334 329 326 325 324 325 326 326 327 326 327 328 328 327 327 329 331 331 332 333 335 337 339 340 340 341 341 341 341 341 342 342 342 342 343
315 315 316 317 318 319 319 319 322 325 327 327 324 322 323 324 323 324 324 325 329 332 331 330 330 330 331 333 330 327 327 326 324 325 325 325 325 326 326 327 327 326 326 329 332 332 333 333 334 337 338 339 341 340 340 341 341 341 342 342 342 343 343
315 315 317 318 320 321 320 321 327 330 332 333 331 326 324 324 323 324 325 325 329 331 331 331 330 331 333 333 329 326 325 324 324 324 325 325 325 325 326 326 326 327 327 330 334 336 336 335 335 337 338 339 340 341 341 342 341 342 342 342 343 343 343
314 315 317 319 321 320 317 322 332 333 333 335 334 329 327 327 326 325 324 325 328 331 332 330 328 331 336 338 337 332 327 326 327 326 326 327 326 326 327 327 328 329 329 332 337 338 337 337 336 336 338 339 340 341 341 342 342 342 342 342 343 344 344
314 314 316 318 319 317 318 327 334 333 334 336 336 335 334 334 333 333 332 329 326 327 329 329 329 332 336 341 343 340 334 331 331 331 331 331 330 329 329 330 331 332 334 337 340 339 338 338 337 337 338 339 340 341 342 342 342 342 342 343 343 343 344
314 314 314 317 317 317 324 332 333 332 333 334 334 335 337 336 336 337 337 336 334 331 329 329 334 337 335 335 341 343 339 338 338 338 337 336 337 336 335 336 336 336 338 341 341 339 338 339 339 339 339 339 340 341 342 342 343 343 343 343 344 344 344
313 313 313 315 316 319 327 333 332 331 333 334 332 332 334 336 335 335 336 337 339 340 337 334 338 338 331 329 338 342 342 344 344 343 342 342 341 341 340 340 340 339 341 343 342 340 340 340 340 341 340 340 341 341 342 342 343 343 343 343 344 344 345
314 315 313 314 316 318 325 330 331 331 334 334 331 328 331 335 334 334 336 338 340 344 344 339 336 334 331 333 338 341 343 347 347 345 346 345 344 344 343 341 340 340 343 344 344 343 341 341 341 341 341 341 341 341 342 342 343 343 344 344 345 345 345
313 314 314 314 315 318 322 328 332 333 332 333 331 329 332 334 333 335 337 339 341 344 345 341 338 337 338 341 341 342 345 348 348 348 349 348 346 346 346 344 343 344 345 346 345 345 344 344 343 343 343 342 342 342 342 343 343 343 344 344 345 345 346
313 314 315 315 316 320 326 330 332 331 329 329 331 332 332 332 333 334 335 337 340 344 344 343 341 340 343 344 345 347 348 348 350 350 351 351 350 350 350 349 347 346 346 346 346 346 347 347 346 345 345 344 344 344 344 344 344 345 345 346 346 347 347
313 314 314 315 318 325 330 330 330 331 330 331 333 333 332 332 332 333 333 335 338 341 343 343 341 342 345 346 346 347 347 348 349 350 351 352 352 352 352 351 348 346 344 344 345 345 346 348 348 348 348 347 347 346 346 346 346 346 347 347 347 348 348
313 313 315 319 323 329 331 330 331 333 333 332 331 331 332 332 330 330 331 333 335 338 341 343 342 343 345 345 344 344 345 346 348 348 349 350 351 351 351 351 349 347 344 344 345 346 347 348 349 350 349 349 349 348 348 349 348 349 349 349 349 350 349
316 316 319 322 325 328 330 332 333 333 331 329 329 330 331 331 329 329 330 332 333 336 339 341 342 342 343 342 343 344 344 344 346 346 347 348 349 350 351 350 350 349 347 347 347 348 349 349 349 350 352 351 352 351 351 351 351 351 351 351 351 351 351
317 318 321 323 325 327 329 331 331 330 329 328 328 328 329 329 328 328 329 331 332 335 338 341 341 341 341 342 342 342 343 344 344 344 345 346 347 347 348 349 350 349 349 349 348 347 348 348 349 350 351 352 353 353 353 354 354 353 353 354 354 354 355
315 318 322 325 327 329 330 329 329 329 328 328 328 328 329 330 329 329 330 331 333 334 336 338 340 340 340 341 341 341 342 342 342 343 344 344 344 345 345 346 347 347 347 348 347 346 346 347 347 347 348 348 349 349 350 351 351 351 351 352 353 355 357
314 315 318 320 320 323 327 329 329 329 329 328 328 329 331 332 330 329 330 331 332 334 334 335 338 339 339 340 340 340 340 341 341 342 343 343 343 344 344 345 345 344 344 344 345 345 345 345 346 346 346 347 346 346 347 347 346 347 347 347 348 349 352
313 313 315 317 318 320 325 327 328 329 329 329 329 330 333 334 331 330 331 332 331 332 334 335 336 337 338 339 339 339 340 340 341 341 342 343 343 343 343 343 342 342 342 343 344 345 344 345 345 345 345 345 344 344 344 343 343 343 343 343 345 345 347
313 314 315 319 323 324 326 327 328 328 328 329 329 330 333 334 331 330 331 332 332 332 333 335 336 336 336 338 339 340 341 341 341 342 342 343 343 343 343 343 343 343 343 343 343 343 343 343 343 343 342 342 342 342 341 341 341 341 340 341 342 342 344
314 314 315 319 322 322 322 324 328 328 328 328 328 329 329 331 330 330 331 332 333 333 332 334 336 336 336 337 338 340 341 340 340 341 342 342 343 343 343 343 343 342 342 341 341 341 342 342 342 342 342 341 341 341 341 341 341 341 341 341 341 342 342
312 313 315 317 319 319 318 320 325 327 328 327 328 329 329 329 328 328 328 329 330 332 333 335 337 338 337 337 338 339 341 341 341 340 340 341 341 341 341 340 340 340 339 340 340 340 340 340 340 341 341 341 341 341 341 340 339 339 338 338 338 339 339
313 314 315 316 316 317 316 317 321 325 328 328 328 327 327 328 327 325 325 325 326 330 332 333 336 339 339 338 339 340 340 341 341 340 340 341 342 342 341 340 339 339 339 339 339 338 338 338 338 339 339 338 338 339 338 337 336 334 333 333 333 334 335
Wind_Speed
15 19 14 14 13 7 5 8 11 7 6 8 6 3 1 1 5 4 5 7 6 4 6 7 9 9 10 13 14 15 18 18 16 17 22 28 32 35 37 42 50 55 55 55 54 53 52 51 50 51 51 51 52 52 51 51 50 50 50 50 49 47 45
13 15 16 16 14 10 7 9 10 7 6 7 7 5 3 5 7 4 6 11 9 6 5 4 9 11 11 12 13 14 16 15 15 18 24 30 33 35 40 46 50 53 54 55 55 55 54 53 52 52 51 50 51 52 52 51 51 51 50 50 49 48 46
9 9 13 12 11 10 5 6 10 8 5 8 6 5 6 7 8 4 5 9 10 10 7 3 6 11 12 12 12 13 14 13 15 19 24 31 33 32 38 45 48 50 53 55 56 56 56 56 54 53 51 50 51 51 52 52 51 50 49 49 49 49 48
9 9 10 10 10 8 2 5 10 6 3 6 7 5 4 5 7 5 4 6 7 9 9 7 8 9 10 11 10 11 13 14 17 19 23 28 31 34 39 43 45 49 52 54 56 57 57 57 56 54 53 53 52 52 52 52 51 50 50 50 49 49 48
9 9 9 11 13 10 6 7 10 7 3 3 5 5 4 5 6 5 5 7 4 3 6 11 14 12 10 11 10 9 12 16 20 25 29 30 32 36 39 41 44 48 50 52 54 55 56 57 56 55 54 54 54 53 53 53 52 52 51 50 49 47 46
7 8 10 16 17 16 14 11 10 11 8 5 6 7 6 6 6 4 5 8 5 3 5 8 12 12 11 11 11 10 13 18 23 29 32 30 29 34 37 39 42 44 47 50 51 52 54 55 56 55 54 55 55 55 55 54 54 53 52 51 49 47 46
3 5 9 13 12 12 14 12 11 13 11 9 9 7 6 7 5 2 3 8 5 4 5 7 9 10 11 10 9 10 12 18 23 27 28 25 25 28 31 34 36 38 43 46 47 49 52 53 54 54 54 55 56 57 56 55 55 55 53 53 51 49 48
1 2 5 6 4 5 10 11 11 12 12 13 12 6 4 6 7 5 5 8 4 3 3 5 6 6 7 7 8 10 12 15 20 25 27 26 26 25 24 27 31 34 38 40 42 45 48 50 52 53 55 56 57 57 56 56 56 55 54 54 53 51 50
5 6 8 7 4 4 7 8 11 13 14 17 15 5 2 6 11 12 9 8 4 2 0 2 3 4 6 7 8 9 11 13 15 19 22 22 23 23 23 25 28 30 33 36 40 43 45 48 50 53 54 56 56 56 56 56 56 55 54 54 54 53 51
10 8 7 6 3 2 3 4 9 14 17 20 15 5 4 8 9 12 12 8 1 3 1 2 4 4 5 8 8 8 11 15 16 17 18 16 16 19 22 23 25 28 31 34 38 41 44 47 49 51 53 54 55 55 56 55 55 55 55 54 54 54 52
2 2 2 2 3 2 3 4 5 8 13 19 16 8 8 6 5 9 13 8 4 3 4 2 4 5 6 8 8 6 9 16 19 18 17 14 14 16 18 19 22 25 29 33 36 39 41 45 47 49 51 53 54 54 54 54 54 54 54 54 54 54 53
3 4 6 5 4 5 6 7 8 7 8 14 17 14 8 7 6 12 10 7 9 8 4 3 4 5 6 6 6 8 11 16 18 17 15 14 14 16 16 17 19 23 27 31 34 36 39 42 45 47 49 51 52 53 53 53 53 53 54 54 53 52 52
4 6 8 6 4 6 7 8 11 11 9 11 14 15 10 10 10 13 6 8 11 11 9 9 6 3 6 8 10 14 15 16 15 14 13 13 14 16 18 19 20 21 25 28 31 34 37 39 42 44 48 49 50 51 53 53 53 53 53 53 51 51 52
5 7 8 6 3 5 8 10 11 13 13 12 11 12 13 13 14 16 9 9 12 13 12 13 12 11 12 13 14 14 13 14 13 11 11 13 14 16 18 19 19 20 22 24 27 30 34 38 40 43 45 48 49 51 52 52 53 53 52 52 50 51 53
5 6 6 6 6 7 10 11 12 12 13 13 12 11 13 13 13 16 14 9 9 8 7 9 10 10 10 11 11 12 13 14 12 12 13 16 19 21 19 17 18 18 19 21 22 26 30 34 38 41 44 46 48 50 51 51 51 51 51 50 50 51 52
5 4 5 9 12 12 12 13 13 14 13 13 11 9 10 11 11 13 14 11 8 4 4 7 6 6 7 8 8 12 17 18 16 16 19 21 26 27 22 19 19 20 21 20 19 21 25 30 35 39 42 44 46 48 49 49 49 50 50 50 50 51 51
5 5 6 9 11 10 10 9 9 12 14 14 13 11 12 13 11 11 11 9 7 4 6 10 9 8 9 10 13 18 22 22 22 22 23 25 28 28 25 22 22 23 23 21 19 19 22 25 31 35 39 43 44 45 45 46 47 49 49 49 49 50 50
5 6 7 9 8 7 5 1 1 6 10 11 14 15 15 14 13 10 9 9 9 8 9 10 11 13 15 17 22 26 25 24 25 26 27 27 27 27 26 24 24 25 26 24 21 19 19 22 27 31 36 39 40 41 43 44 46 47 47 48 48 49 50
5 5 5 7 8 5 5 3 1 4 6 6 10 14 14 15 16 15 14 13 11 9 8 12 17 19 18 18 19 20 21 23 24 26 26 25 24 25 25 25 25 26 26 24 21 18 17 20 25 30 34 35 37 40 43 43 44 45 46 47 48 48 49
4 3 5 8 3 8 15 8 4 1 2 2 5 8 9 8 9 12 14 14 13 11 9 14 20 17 11 8 10 13 16 19 21 23 23 22 22 23 24 25 25 25 24 23 20 17 14 16 21 26 31 33 36 39 41 42 42 43 44 45 46 47 48
5 5 8 8 6 12 14 5 4 2 2 3 4 3 3 3 5 6 8 10 14 14 10 11 14 10 5 4 8 12 15 17 19 20 20 20 20 20 22 23 23 22 21 19 15 12 11 13 15 20 26 30 34 36 39 40 41 42 43 44 45 45 46
6 6 8 8 8 9 5 3 2 3 3 2 1 2 3 1 6 9 8 8 11 11 7 6 6 5 5 6 7 12 18 19 18 17 17 16 15 16 17 18 18 17 16 12 8 6 8 9 10 14 20 25 29 33 36 38 39 41 42 42 42 44 45
7 8 9 8 8 6 3 5 0 4 3 3 4 3 3 1 7 11 9 9 10 10 8 5 5 6 7 7 6 13 18 17 15 14 12 11 11 10 10 10 10 10 9 7 6 6 7 9 9 10 14 20 25 29 32 35 37 39 39 39 40 42 43
8 9 9 7 7 4 1 2 1 5 1 6 5 5 2 3 10 13 12 11 12 12 11 7 7 9 8 6 7 14 18 16 15 15 13 12 11 8 7 5 5 5 6 7 6 6 7 9 10 10 12 16 20 24 27 30 33 34 35 35 36 37 37
10 10 9 8 6 4 3 3 0 2 1 5 5 4 1 4 12 14 13 15 15 14 14 10 8 8 7 5 8 16 19 18 17 17 15 15 14 12 11 9 9 9 8 8 8 7 7 8 10 11 12 12 15 18 21 24 26 27 28 28 29 30 32
8 9 8 8 6 4 6 4 2 2 3 4 3 2 4 8 12 13 14 15 15 15 16 14 12 11 7 4 11 18 20 20 20 18 17 17 17 16 16 15 14 15 13 12 11 10 10 10 10 11 13 12 12 13 15 17 20 21 22 24 26 28 30
7 8 9 8 6 2 8 7 3 4 4 2 2 3 5 5 9 13 14 13 14 15 15 13 12 9 4 5 10 14 16 18 19 18 17 17 17 17 18 17 16 17 17 16 16 15 14 13 12 12 13 13 12 12 13 14 16 17 19 20 23 25 27
6 8 7 4 4 3 4 6 4 4 3 2 1 4 3 3 7 11 12 13 13 14 12 9 7 6 5 6 6 8 10 13 15 15 14 14 15 16 17 17 17 16 16 16 16 16 15 14 13 12 11 11 12 11 11 12 12 13 14 15 17 19 22
5 7 7 7 12 15 13 9 3 7 6 5 5 4 1 4 6 9 10 11 11 11 9 5 5 5 5 6 6 5 6 7 9 11 11 12 14 15 15 16 16 16 16 16 15 16 16 14 13 13 12 10 10 10 9 9 10 10 11 11 12 14 16
7 9 11 12 13 16 16 11 3 8 8 6 5 3 3 7 8 8 8 9 8 7 5 2 4 4 5 8 8 6 5 5 5 7 8 10 12 13 14 14 14 13 14 13 13 13 14 13 13 12 11 10 9 8 7 7 7 7 8 9 10 11 12
7 5 7 8 8 11 13 11 5 5 7 7 7 7 8 11 9 7 7 6 4 4 4 2 4 5 5 9 10 8 6 5 5 5 6 8 10 12 13 14 13 13 12 11 11 10 10 9 9 9 8 8 7 6 5 4 4 4 5 6 7 9 10
5 7 11 13 16 18 18 14 9 6 7 8 11 12 13 13 9 7 8 7 4 3 4 4 6 6 5 7 10 10 7 6 5 6 6 7 8 10 12 12 12 12 12 11 10 9 8 8 7 6 5 5 3 3 1 0 1 2 2 3 4 5 7
7 11 14 13 14 17 18 18 14 9 9 12 15 16 16 13 8 7 9 10 8 6 5 5 8 9 6 6 9 12 11 10 9 8 8 9 9 10 11 12 12 12 12 11 11 10 10 10 8 7 7 6 5 4 4 4 3 3 4 4 5 6 7
8 9 8 5 4 7 12 15 15 11 10 15 17 17 17 13 7 6 8 10 9 8 7 8 11 12 9 6 8 14 16 16 14 12 11 10 11 11 12 13 14 16 16 16 15 14 14 13 11 10 10 9 8 7 6 6 6 5 4 3 3 4 6
12 14 13 9 5 9 15 17 15 12 8 10 14 17 16 12 6 4 7 10 11 9 7 8 13 15 12 9 10 15 18 18 17 16 14 13 12 13 14 16 19 20 20 20 19 19 18 16 15 14 13 12 12 11 9 9 8 7 7 6 5 4 3
19 22 23 18 12 14 22 27 23 12 8 10 12 14 14 10 7 6 7 10 11 10 9 10 14 17 15 12 11 15 18 18 19 20 20 19 18 19 22 24 24 23 23 22 21 22 21 20 19 19 18 17 16 15 14 13 13 12 11 10 10 10 9
24 26 26 22 21 24 29 33 32 18 9 13 14 15 14 9 7 9 10 12 12 11 11 13 16 18 17 14 13 16 19 20 19 19 20 23 25 26 28 28 26 25 25 24 24 23 23 22 22 21 21 21 20 18 17 17 16 16 16 16 16 15 14
Wind_Direction
180 192 185 163 170 181 168 181 204 207 169 183 227 242 146 252 259 213 188 241 263 266 270 243 221 232 231 229 228 225 229 218 198 198 205 207 209 208 208 213 219 222 223 224 225 226 228 228 229 229 230 230 229 229 229 230 230 230 231 230 230 230 229
198 189 171 175 184 160 144 195 189 134 135 199 228 237 210 222 247 235 195 232 248 245 254 212 197 213 221 223 222 223 231 221 203 204 211 215 214 211 214 218 220 221 222 224 225 226 227 228 229 230 231 231 231 230 230 230 230 230 231 232 232 232 232
180 155 170 184 182 169 171 186 162 138 174 195 187 216 230 220 236 251 208 224 240 232 228 208 199 210 216 220 218 220 227 224 217 213 215 221 218 212 216 220 220 220 221 223 224 225 226 227 228 230 231 231 231 232 232 231 232 232 232 232 232 233 233
153 154 187 191 182 190 192 149 163 175 210 190 177 196 216 209 227 248 228 224 237 226 215 222 234 231 228 227 221 221 225 224 223 219 217 219 217 215 219 220 220 220 221 222 224 225 226 226 228 229 230 230 231 232 232 232 233 233 233 234 234 234 234
160 175 193 195 189 190 187 181 186 187 178 180 189 198 208 215 223 233 244 249 242 185 187 210 222 228 233 231 226 227 229 229 231 230 227 224 220 221 222 221 221 222 222 223 224 225 227 227 228 227 227 229 230 231 232 233 232 233 233 234 235 237 236
187 183 189 202 201 194 194 198 194 189 185 177 189 206 206 212 226 218 240 264 260 143 167 206 214 219 223 223 221 224 229 231 233 234 234 231 226 225 224 223 224 223 223 224 222 223 225 225 227 227 225 227 229 229 232 233 232 232 233 234 235 237 237
197 185 197 214 217 208 206 205 197 195 192 184 198 214 191 188 220 214 240 271 271 142 166 199 207 217 224 224 222 226 233 236 239 241 241 239 236 233 228 225 225 224 225 225 222 221 224 225 227 228 226 227 229 230 231 232 232 233 234 235 236 236 236
291 232 226 237 254 234 222 216 204 200 198 198 209 219 170 181 201 188 220 253 244 132 173 211 216 224 233 236 229 229 238 242 245 249 249 247 246 242 235 231 228 226 227 227 224 222 224 224 224 225 227 228 230 230 231 231 233 234 235 235 236 237 236
207 222 224 220 203 201 226 225 213 209 203 205 212 200 129 213 206 195 217 241 217 110 38 244 246 251 254 254 238 232 245 250 249 252 254 255 253 248 243 238 234 231 229 228 227 225 224 223 221 222 225 228 229 230 231 232 233 234 234 234 236 237 236
205 207 212 218 204 196 242 243 223 216 208 209 212 190 187 217 200 195 219 235 167 94 129 221 242 250 258 261 252 240 252 262 266 266 265 265 261 254 249 244 238 235 232 228 228 228 225 223 222 221 222 224 227 230 232 232 233 233 233 234 235 236 236
210 225 250 288 329 291 264 282 268 239 219 214 212 207 213 198 166 210 225 229 231 193 159 183 227 233 248 260 264 258 252 258 263 264 262 260 260 259 255 248 240 236 234 231 230 230 228 226 225 223 222 223 225 228 230 231 232 232 233 233 234 235 235
11 320 301 296 298 271 264 281 285 277 251 227 219 219 206 145 177 232 222 202 233 230 200 226 230 226 247 257 263 266 261 256 255 255 253 255 265 271 267 258 250 242 238 236 234 232 231 230 228 225 224 225 225 226 229 230 231 232 234 234 234 235 235
334 304 297 290 275 259 259 268 269 273 275 254 238 233 212 170 207 243 208 166 221 234 229 240 238 226 250 255 260 266 267 264 260 257 258 264 274 280 279 275 268 258 250 244 240 236 232 230 228 226 225 226 225 225 227 228 230 232 234 234 234 234 234
315 304 300 296 288 273 269 268 265 266 269 265 259 252 240 222 229 244 227 188 218 230 227 231 230 230 243 254 263 265 260 257 258 259 266 275 279 283 286 282 275 271 264 256 249 242 235 231 229 227 226 225 224 224 225 226 229 231 233 233 232 232 234
301 304 307 304 306 301 287 274 262 259 260 259 254 249 249 243 239 245 242 223 222 225 229 238 229 224 236 246 254 257 254 256 261 262 266 272 275 278 282 275 273 280 277 266 255 246 240 236 232 229 227 226 224 224 225 226 227 229 230 231 230 232 237
286 304 320 318 319 309 285 267 258 251 248 250 248 239 240 239 235 242 245 243 243 221 227 254 242 220 235 240 243 252 255 257 259 259 262 266 270 274 273 266 271 284 283 273 262 255 249 242 236 233 230 226 224 224 225 227 227 227 228 230 230 233 236
287 305 317 323 323 302 270 257 254 250 247 250 251 243 240 236 233 237 238 244 259 236 220 241 242 231 235 239 242 245 247 249 250 254 259 262 266 270 270 267 271 279 281 277 271 266 259 249 242 238 232 228 227 227 227 227 226 226 228 231 232 234 234
281 299 317 314 288 258 252 259 258 264 261 257 253 247 241 234 233 245 256 256 254 237 219 228 235 235 236 240 245 247 247 247 248 251 255 258 261 265 268 269 271 274 276 277 275 269 261 254 248 240 234 233 233 232 228 226 225 226 228 230 231 233 234
277 297 306 273 242 245 305 351 77 269 264 258 264 259 248 238 233 237 246 247 247 244 226 224 233 241 245 247 251 251 248 245 245 247 250 253 255 260 265 269 271 272 275 277 277 271 259 250 245 238 234 233 233 231 229 227 226 227 228 229 230 231 232
256 261 239 234 251 327 314 318 56 3 269 325 297 261 242 248 248 242 239 235 238 241 228 225 236 245 255 258 248 242 239 237 237 242 247 250 252 256 262 268 270 272 273 275 277 272 254 241 239 236 233 231 229 228 229 228 228 229 230 230 230 231 232
224 236 246 253 304 315 297 298 55 18 297 350 330 264 252 321 344 311 276 252 246 244 231 226 234 238 245 248 235 230 230 230 232 237 244 248 250 252 258 264 269 270 270 272 274 265 239 226 231 234 232 230 229 228 228 229 229 229 230 231 232 233 233
211 231 253 259 269 271 245 151 78 317 289 268 229 231 256 338 24 1 332 298 279 274 263 233 205 187 222 246 235 222 223 225 227 231 236 240 243 247 254 262 267 267 264 263 259 241 219 215 225 233 232 229 228 228 228 229 229 229 230 233 235 235 234
214 218 236 241 242 242 150 129 198 321 312 191 191 238 243 59 10 348 334 316 303 304 302 268 188 182 224 246 231 215 214 214 213 212 212 213 219 229 239 248 253 249 240 228 214 200 197 200 209 226 234 230 226 227 228 229 230 230 233 236 236 235 235
228 223 236 239 236 248 116 138 278 331 333 169 201 256 240 34 347 331 327 319 308 305 305 282 216 208 229 249 230 209 202 196 190 184 178 178 180 180 182 188 190 185 186 189 186 181 185 192 195 203 217 225 226 228 229 230 231 234 237 239 239 239 240
228 228 240 249 245 236 208 195 246 15 147 186 222 254 256 330 327 330 330 320 311 304 296 275 236 238 262 264 209 190 184 177 169 161 156 154 149 139 132 131 132 137 147 158 158 157 161 172 181 184 189 204 218 224 228 231 235 240 243 244 243 243 242
226 229 238 253 262 217 167 168 145 144 201 227 251 281 295 307 321 334 330 318 316 310 294 271 255 263 276 216 174 171 170 166 158 152 147 141 136 130 123 119 119 121 122 125 128 130 137 148 161 168 171 179 193 208 220 228 235 239 241 241 241 242 242
220 234 233 241 264 197 150 157 171 191 215 270 345 307 301 320 334 335 327 320 323 320 305 278 254 249 230 167 162 161 162 161 156 151 146 139 134 130 126 124 122 120 118 117 116 115 119 128 138 149 160 165 171 186 204 216 225 231 235 238 240 242 243
215 225 216 219 312 321 198 205 206 181 181 143 166 257 291 16 359 337 326 321 329 331 317 284 231 198 169 159 158 152 153 155 154 152 148 141 135 131 128 126 124 124 123 118 114 113 114 117 124 133 145 156 162 174 191 204 215 224 231 237 242 245 247
250 254 260 290 313 311 294 272 201 149 158 161 172 209 264 47 18 349 327 319 331 340 321 276 200 176 163 149 142 142 144 143 144 146 145 140 135 129 124 123 123 123 122 118 116 116 114 114 119 124 132 146 157 165 178 194 207 218 225 231 237 243 249
306 289 269 266 279 289 290 285 214 150 158 160 158 160 90 63 35 360 332 321 335 347 327 265 170 156 145 135 128 127 133 132 128 131 132 133 132 127 122 121 121 121 119 118 118 118 115 115 118 119 125 135 144 150 161 180 197 213 222 228 232 236 241
308 293 264 259 269 276 273 266 242 169 159 150 137 119 85 66 46 13 350 340 339 351 355 47 129 140 140 133 124 119 123 122 111 110 112 116 120 122 121 119 119 121 119 115 114 113 109 108 108 110 116 122 125 132 141 158 181 202 219 229 236 239 240
262 270 280 290 297 291 274 259 249 209 172 142 116 104 89 71 50 27 24 23 29 50 38 53 94 112 125 126 120 117 116 111 104 103 103 102 104 110 115 118 123 126 124 120 119 116 108 101 94 89 89 85 79 83 77 8 262 270 281 273 267 261 250
279 274 276 281 289 284 267 253 249 226 172 130 106 97 88 73 50 43 56 52 48 64 80 83 90 95 96 103 110 111 107 102 99 96 92 92 93 95 102 111 117 119 118 115 113 108 101 95 89 80 75 65 50 36 10 347 332 316 300 280 269 262 252
267 257 261 257 259 274 262 243 228 201 147 110 91 81 77 71 47 38 72 79 72 74 88 102 103 98 86 75 91 100 101 99 98 95 91 90 92 92 95 101 103 104 104 103 100 96 90 86 81 76 70 63 55 43 27 13 3 351 343 328 290 263 252
257 258 268 273 279 298 290 267 238 203 156 107 85 77 77 81 72 49 73 88 90 87 84 95 102 99 90 82 87 95 100 99 96 95 93 89 87 89 90 92 93 93 94 94 92 90 88 87 88 85 81 77 72 64 56 50 41 34 31 29 25 20 357
263 266 270 273 274 277 278 276 265 235 160 120 101 90 86 91 99 96 87 84 89 98 100 99 101 99 96 96 98 101 104 102 95 92 90 86 82 82 83 84 85 85 85 85 84 84 86 89 90 89 88 86 82 78 77 76 73 71 67 61 55 49 38
258 263 266 269 269 268 273 279 276 257 166 122 113 105 100 105 115 112 100 87 87 103 111 107 108 109 107 108 112 110 108 103 97 92 89 85 82 81 80 81 81 81 82 82 82 83 85 87 88 87 87 84 81 80 80 81 81 79 76 71 68 63 55